Hourly Weather Barniewice

Today, 6 May, Thursday

Time Temperature Precipitation Wind Pressure Humidity
00:00 +2°C° 0.3 mm 8 mps 735 mmHg 89%
01:00 +1°C° 0 mm 9 mps 735 mmHg 95%
02:00 +1°C° 0.4 mm 9 mps 735 mmHg 94%
03:00 +1°C° 0.4 mm 9 mps 736 mmHg 94%
04:00 +1°C° 0.4 mm 10 mps 736 mmHg 93%
05:00 +1°C° 0.1 mm 10 mps 736 mmHg 89%
06:00 +1°C° 0.1 mm 10 mps 737 mmHg 84%
07:00 +1°C° 0 mm 10 mps 737 mmHg 81%
08:00 +2°C° 0 mm 10 mps 737 mmHg 79%
09:00 +2°C° 0 mm 10 mps 738 mmHg 77%
10:00 +3°C° 0 mm 10 mps 738 mmHg 74%
11:00 +5°C° 0.1 mm 10 mps 738 mmHg 67%
12:00 +6°C° 0.1 mm 10 mps 739 mmHg 59%
13:00 +8°C° 0.1 mm 10 mps 739 mmHg 51%
14:00 +8°C° 0 mm 9 mps 739 mmHg 50%
15:00 +9°C° 0 mm 8 mps 739 mmHg 49%
16:00 +9°C° 0 mm 7 mps 739 mmHg 47%
17:00 +8°C° 0 mm 7 mps 739 mmHg 54%
18:00 +5°C° 0 mm 6 mps 739 mmHg 61%
19:00 +4°C° 0 mm 6 mps 740 mmHg 67%
20:00 +3°C° 0 mm 5 mps 740 mmHg 71%
21:00 +2°C° 0 mm 5 mps 740 mmHg 75%
22:00 +1°C° 0 mm 4 mps 740 mmHg 79%
23:00 +1°C° 0 mm 4 mps 740 mmHg 80%

Tomorrow, 7 May, Friday

Time Temperature Precipitation Wind Pressure Humidity
00:00 +1°C° 0 mm 4 mps 740 mmHg 80%
01:00 +1°C° 0 mm 4 mps 740 mmHg 81%
02:00 +2°C° 0 mm 3 mps 740 mmHg 80%
03:00 +2°C° 0 mm 3 mps 740 mmHg 79%
04:00 +2°C° 0 mm 3 mps 740 mmHg 79%
05:00 +4°C° 0 mm 2 mps 740 mmHg 75%
06:00 +5°C° 0 mm 2 mps 740 mmHg 70%
07:00 +6°C° 0 mm 2 mps 740 mmHg 66%
08:00 +7°C° 0 mm 2 mps 740 mmHg 61%
09:00 +8°C° 0 mm 2 mps 740 mmHg 57%
10:00 +9°C° 0 mm 2 mps 740 mmHg 52%
11:00 +9°C° 0.1 mm 3 mps 740 mmHg 53%
12:00 +8°C° 0.1 mm 4 mps 741 mmHg 54%
13:00 +8°C° 0.1 mm 5 mps 741 mmHg 55%
14:00 +8°C° 0 mm 5 mps 741 mmHg 56%
15:00 +7°C° 0 mm 5 mps 741 mmHg 57%
16:00 +7°C° 0 mm 5 mps 742 mmHg 58%
17:00 +6°C° 0 mm 5 mps 742 mmHg 63%
18:00 +5°C° 0 mm 4 mps 743 mmHg 69%
19:00 +4°C° 0 mm 4 mps 743 mmHg 74%
20:00 +3°C° 0 mm 4 mps 744 mmHg 80%
21:00 +1°C° 0 mm 4 mps 744 mmHg 86%
22:00 +1°C° 0 mm 4 mps 745 mmHg 92%
23:00 +1°C° 0 mm 4 mps 745 mmHg 92%

Day after tomorrow, 8 May, Saturday

Time Temperature Precipitation Wind Pressure Humidity
00:00 +1°C° 0 mm 4 mps 745 mmHg 93%
01:00 +1°C° 0 mm 4 mps 745 mmHg 94%
02:00 0°C° 0 mm 4 mps 746 mmHg 94%
03:00 0°C° 0 mm 4 mps 746 mmHg 94%
04:00 0°C° 0 mm 5 mps 746 mmHg 94%
05:00 +1°C° 0 mm 5 mps 747 mmHg 89%
06:00 +3°C° 0 mm 5 mps 747 mmHg 83%
07:00 +4°C° 0 mm 6 mps 747 mmHg 77%
08:00 +5°C° 0.2 mm 6 mps 747 mmHg 74%
09:00 +7°C° 0.2 mm 6 mps 748 mmHg 71%
10:00 +6°C° 0.2 mm 7 mps 748 mmHg 68%
11:00 +8°C° 0.1 mm 7 mps 748 mmHg 65%
12:00 +8°C° 0.1 mm 7 mps 749 mmHg 63%
13:00 +8°C° 0.1 mm 6 mps 749 mmHg 60%
14:00 +8°C° 0.1 mm 6 mps 749 mmHg 57%
15:00 +8°C° 0.1 mm 6 mps 749 mmHg 53%
16:00 +8°C° 0.1 mm 6 mps 750 mmHg 50%
17:00 +7°C° 0 mm 5 mps 750 mmHg 54%
18:00 +6°C° 0 mm 4 mps 750 mmHg 58%
19:00 +5°C° 0 mm 3 mps 750 mmHg 62%
20:00 +4°C° 0 mm 3 mps 750 mmHg 64%
21:00 +3°C° 0 mm 3 mps 751 mmHg 67%
22:00 +2°C° 0 mm 3 mps 751 mmHg 70%
23:00 +2°C° 0 mm 3 mps 751 mmHg 70%

9 May, Sunday

Time Temperature Precipitation Wind Pressure Humidity
00:00 +2°C° 0 mm 3 mps 751 mmHg 71%
01:00 +2°C° 0 mm 3 mps 751 mmHg 71%
02:00 +2°C° 0 mm 3 mps 750 mmHg 73%
03:00 +1°C° 0 mm 4 mps 750 mmHg 76%
04:00 +1°C° 0 mm 4 mps 750 mmHg 78%
05:00 +3°C° 0 mm 5 mps 750 mmHg 74%
06:00 +5°C° 0 mm 6 mps 749 mmHg 69%
07:00 +7°C° 0 mm 6 mps 749 mmHg 65%
08:00 +8°C° 0 mm 6 mps 749 mmHg 64%
09:00 +9°C° 0 mm 6 mps 748 mmHg 63%
10:00 +9°C° 0 mm 6 mps 748 mmHg 62%
11:00 +12°C° 0 mm 7 mps 748 mmHg 57%
12:00 +15°C° 0 mm 7 mps 748 mmHg 52%
13:00 +17°C° 0 mm 8 mps 748 mmHg 47%
14:00 +17°C° 0 mm 7 mps 748 mmHg 50%
15:00 +18°C° 0 mm 7 mps 747 mmHg 52%
16:00 +19°C° 0 mm 6 mps 747 mmHg 54%
17:00 +17°C° 0 mm 6 mps 747 mmHg 60%
18:00 +15°C° 0 mm 5 mps 747 mmHg 66%
19:00 +14°C° 0 mm 5 mps 747 mmHg 72%
20:00 +13°C° 0 mm 5 mps 747 mmHg 76%
21:00 +13°C° 0 mm 5 mps 748 mmHg 80%
22:00 +12°C° 0 mm 5 mps 748 mmHg 83%
23:00 +10°C° 0 mm 5 mps 748 mmHg 84%

10 May, Monday

Time Temperature Precipitation Wind Pressure Humidity
00:00 +9°C° 0 mm 5 mps 748 mmHg 86%
01:00 +9°C° 0 mm 5 mps 748 mmHg 87%
02:00 +8°C° 0 mm 5 mps 748 mmHg 85%
03:00 +8°C° 0 mm 5 mps 748 mmHg 83%
04:00 +8°C° 0 mm 5 mps 748 mmHg 81%
05:00 +9°C° 0 mm 6 mps 748 mmHg 75%
06:00 +11°C° 0 mm 6 mps 748 mmHg 70%
07:00 +12°C° 0 mm 7 mps 748 mmHg 64%
08:00 +15°C° 0 mm 7 mps 748 mmHg 60%
09:00 +17°C° 0 mm 7 mps 748 mmHg 55%
10:00 +18°C° 0 mm 7 mps 748 mmHg 50%
11:00 +20°C° 0 mm 7 mps 748 mmHg 50%
12:00 +21°C° 0 mm 7 mps 748 mmHg 49%
13:00 +22°C° 0 mm 7 mps 747 mmHg 48%
14:00 +22°C° 0 mm 7 mps 747 mmHg 51%
15:00 +22°C° 0 mm 6 mps 747 mmHg 55%
16:00 +22°C° 0 mm 6 mps 747 mmHg 58%
17:00 +20°C° 0 mm 5 mps 747 mmHg 64%
18:00 +19°C° 0 mm 5 mps 747 mmHg 70%
19:00 +18°C° 0 mm 4 mps 747 mmHg 76%
20:00 +17°C° 0 mm 4 mps 747 mmHg 80%
21:00 +15°C° 0 mm 4 mps 747 mmHg 85%
22:00 +14°C° 0 mm 4 mps 747 mmHg 89%
23:00 +13°C° 0 mm 4 mps 747 mmHg 91%

11 May, Tuesday

Time Temperature Precipitation Wind Pressure Humidity
00:00 +13°C° 0 mm 4 mps 747 mmHg 93%
01:00 +12°C° 0 mm 4 mps 747 mmHg 94%
02:00 +12°C° 0 mm 4 mps 747 mmHg 94%
03:00 +12°C° 0 mm 4 mps 747 mmHg 95%
04:00 +11°C° 0 mm 4 mps 747 mmHg 95%
05:00 +12°C° 0 mm 4 mps 747 mmHg 90%
06:00 +14°C° 0 mm 5 mps 747 mmHg 85%
07:00 +15°C° 0 mm 5 mps 747 mmHg 80%
08:00 +16°C° 0 mm 6 mps 747 mmHg 74%
09:00 +19°C° 0 mm 6 mps 746 mmHg 69%
10:00 +20°C° 0 mm 6 mps 746 mmHg 63%
11:00 +21°C° 0 mm 6 mps 746 mmHg 61%
12:00 +22°C° 0 mm 7 mps 746 mmHg 59%
13:00 +23°C° 0 mm 7 mps 746 mmHg 56%
14:00 +23°C° 0 mm 7 mps 746 mmHg 59%
15:00 +23°C° 0 mm 7 mps 745 mmHg 62%
16:00 +23°C° 0 mm 7 mps 745 mmHg 64%
17:00 +22°C° 0 mm 7 mps 745 mmHg 68%
18:00 +21°C° 0 mm 7 mps 745 mmHg 71%
19:00 +20°C° 0 mm 7 mps 745 mmHg 74%
20:00 +20°C° 0 mm 6 mps 746 mmHg 76%
21:00 +19°C° 0 mm 6 mps 746 mmHg 78%
22:00 +17°C° 0 mm 6 mps 746 mmHg 80%
23:00 +16°C° 0 mm 6 mps 746 mmHg 81%
Show more